Shenandoah, IA

12:37 AM CDT on April 22, 2018 (GMT -0500)
Shenandoah Municipal

Weather History for KSDA - January, 2014

Change the Weather History Date:

Thursday, January 30, 2014

  Actual Average Record
Temperature  
Mean Temperature 30 °F -  
Max Temperature 42 °F 33 °F 69 °F (2012)
Min Temperature 19 °F 14 °F -15 °F (1965)
Degree Days  
Heating Degree Days 34    
Moisture  
Dew Point 13 °F    
Average Humidity 47    
Maximum Humidity 63    
Minimum Humidity 28    
Precipitation  
Precipitation 0.00 in - - ()
Sea Level Pressure  
Sea Level Pressure 29.76 in    
Wind  
Wind Speed 17 mph (WNW)    
Max Wind Speed 26 mph    
Max Gust Speed 33 mph    
Visibility 10 miles    
Events Rain    
Averages and records for this station are not official NWS values.
T = Trace of Precipitation, MM = Missing Value Source: NWS Daily Summary

Daily Weather History Graph

Daily Weather History Graph

Search for Another Location

Airport or City:

Astronomy

Jan. 30, 2014 Rise Set
Actual Time 7:33 AM CST 5:36 PM CST
Civil Twilight 7:04 AM CST 6:05 PM CST
Nautical Twilight 6:31 AM CST 6:38 PM CST
Astronomical Twilight 5:59 AM CST 7:11 PM CST
Moon 6:59 AM CST (1/30) 5:50 PM CST (1/30)
Length of Visible Light 11h 01m
Length of Day
10h 03m
Waning Crescent, 0% of the Moon is Illuminated
Jan 30
Waning Crescent
Jan 30
New
Feb 6
First Quarter
Feb 14
Full
Feb 22
Last Quarter

Hourly Weather History & Observations

Time (CST) Temp. Windchill Dew Point Humidity Pressure Visibility Wind Dir Wind Speed Gust Speed Precip Events Conditions
12:15 AM 37.4 °F 26.6 °F 6.8 °F 28% 29.68 in 10.0 mi SSW 21.9 mph 28.8 mph N/A   Clear
12:35 AM 37.4 °F 26.4 °F 6.8 °F 28% 29.66 in 10.0 mi South 23.0 mph 29.9 mph N/A   Clear
12:55 AM 37.4 °F 26.9 °F 6.8 °F 28% 29.65 in 10.0 mi South 20.7 mph - N/A   Clear
1:15 AM 37.4 °F 27.2 °F 6.8 °F 28% 29.64 in 10.0 mi SSW 19.6 mph 25.3 mph N/A   Clear
1:35 AM 37.4 °F 27.8 °F 6.8 °F 28% 29.64 in 10.0 mi SSW 17.3 mph 24.2 mph N/A   Partly Cloudy
1:55 AM 37.4 °F 28.5 °F 6.8 °F 28% 29.65 in 10.0 mi SSW 15.0 mph 25.3 mph N/A   Mostly Cloudy
2:15 AM 37.4 °F 28.2 °F 6.8 °F 28% 29.63 in 10.0 mi South 16.1 mph 23.0 mph N/A   Overcast
2:35 AM 37.4 °F 27.5 °F 8.6 °F 30% 29.60 in 10.0 mi South 18.4 mph - N/A   Overcast
2:55 AM 37.4 °F 28.9 °F 8.6 °F 30% 29.59 in 10.0 mi South 13.8 mph 24.2 mph N/A   Overcast
3:15 AM 37.4 °F 29.3 °F 8.6 °F 30% 29.59 in 10.0 mi South 12.7 mph 23.0 mph N/A   Overcast
3:35 AM 35.6 °F 26.2 °F 8.6 °F 33% 29.58 in 10.0 mi South 15.0 mph 21.9 mph N/A   Overcast
3:55 AM 35.6 °F 25.9 °F 8.6 °F 33% 29.54 in 10.0 mi South 16.1 mph 24.2 mph N/A   Overcast
4:15 AM 35.6 °F 25.5 °F 8.6 °F 33% 29.52 in 10.0 mi South 17.3 mph 26.5 mph N/A   Overcast
4:35 AM 35.6 °F 25.2 °F 10.4 °F 35% 29.52 in 10.0 mi South 18.4 mph 26.5 mph N/A   Overcast
4:55 AM 35.6 °F 24.5 °F 10.4 °F 35% 29.51 in 10.0 mi South 20.7 mph 29.9 mph N/A   Mostly Cloudy
5:15 AM 35.6 °F 24.0 °F 10.4 °F 35% 29.52 in 10.0 mi SSW 23.0 mph 32.2 mph N/A   Mostly Cloudy
5:35 AM 35.6 °F 24.5 °F 10.4 °F 35% 29.53 in 10.0 mi SSW 20.7 mph 27.6 mph N/A   Mostly Cloudy
5:55 AM 35.6 °F 23.2 °F 12.2 °F 38% 29.53 in 10.0 mi SSW 26.5 mph 33.4 mph N/A   Mostly Cloudy
6:15 AM 35.6 °F 23.4 °F 12.2 °F 38% 29.52 in 10.0 mi SSW 25.3 mph 33.4 mph N/A   Overcast
6:35 AM 35.6 °F 24.2 °F 12.2 °F 38% 29.52 in 10.0 mi SSW 21.9 mph 33.4 mph N/A   Overcast
6:55 AM 33.8 °F 21.9 °F 19.4 °F 56% 29.53 in 10.0 mi SSW 21.9 mph 29.9 mph N/A Rain Light Rain
7:15 AM 33.8 °F 22.8 °F 19.4 °F 56% 29.53 in 10.0 mi SSW 18.4 mph 31.1 mph N/A Rain Light Rain
7:35 AM 33.8 °F 22.5 °F 19.4 °F 56% 29.54 in 10.0 mi SSW 19.6 mph 25.3 mph N/A   Overcast
7:55 AM 33.8 °F 22.5 °F 19.4 °F 56% 29.55 in 10.0 mi SSW 19.6 mph 28.8 mph N/A   Overcast
8:15 AM 33.8 °F 23.2 °F 19.4 °F 56% 29.55 in 10.0 mi SSW 17.3 mph 27.6 mph N/A   Overcast
8:35 AM 35.6 °F 24.2 °F 19.4 °F 52% 29.55 in 10.0 mi SSW 21.9 mph 29.9 mph N/A   Overcast
8:55 AM 35.6 °F 25.2 °F 17.6 °F 48% 29.57 in 10.0 mi SSW 18.4 mph 25.3 mph N/A   Overcast
9:15 AM 37.4 °F 26.6 °F 19.4 °F 48% 29.58 in 10.0 mi SSW 21.9 mph 29.9 mph N/A   Overcast
9:35 AM 37.4 °F 27.5 °F 19.4 °F 48% 29.59 in 10.0 mi SW 18.4 mph 27.6 mph N/A   Overcast
9:55 AM 37.4 °F 27.8 °F 19.4 °F 48% 29.61 in 10.0 mi SW 17.3 mph 25.3 mph N/A   Overcast
10:15 AM 39.2 °F 29.8 °F 17.6 °F 42% 29.62 in 10.0 mi SW 18.4 mph 27.6 mph N/A   Overcast
10:35 AM 41.0 °F 32.8 °F 17.6 °F 39% 29.62 in 10.0 mi SW 16.1 mph 26.5 mph N/A   Overcast
10:55 AM 42.8 °F 35.4 °F 17.6 °F 36% 29.64 in 10.0 mi WSW 15.0 mph 23.0 mph N/A   Mostly Cloudy
11:15 AM 39.2 °F 28.5 °F 24.8 °F 56% 29.67 in 10.0 mi NW 24.2 mph 33.4 mph N/A   Mostly Cloudy
11:35 AM 37.4 °F 26.9 °F 24.8 °F 60% 29.69 in 10.0 mi WNW 20.7 mph 31.1 mph N/A   Clear
11:55 AM 35.6 °F 25.2 °F 23.0 °F 60% 29.71 in 10.0 mi NNW 18.4 mph 25.3 mph N/A   Partly Cloudy
12:15 PM 37.4 °F 28.2 °F 21.2 °F 52% 29.72 in 10.0 mi NNW 16.1 mph 27.6 mph N/A   Clear
12:35 PM 37.4 °F 27.5 °F 19.4 °F 48% 29.73 in 10.0 mi NW 18.4 mph 32.2 mph N/A   Clear
12:55 PM 35.6 °F 25.2 °F 19.4 °F 52% 29.75 in 10.0 mi NNW 18.4 mph 26.5 mph N/A   Clear
1:15 PM 33.8 °F 22.2 °F 17.6 °F 52% 29.76 in 10.0 mi NNW 20.7 mph - N/A   Clear
1:35 PM 33.8 °F 22.8 °F 17.6 °F 52% 29.78 in 10.0 mi NNW 18.4 mph 27.6 mph N/A   Clear
1:55 PM 33.8 °F 23.2 °F 15.8 °F 48% 29.79 in 10.0 mi North 17.3 mph 24.2 mph N/A   Clear
2:15 PM 33.8 °F 23.5 °F 15.8 °F 48% 29.81 in 10.0 mi NNW 16.1 mph 23.0 mph N/A   Clear
2:35 PM 33.8 °F 22.8 °F 15.8 °F 48% 29.82 in 10.0 mi NNW 18.4 mph 24.2 mph N/A   Clear
2:55 PM 32.0 °F 22.1 °F 15.8 °F 51% 29.84 in 10.0 mi NNW 13.8 mph 20.7 mph N/A   Clear
3:15 PM 32.0 °F 21.2 °F 14.0 °F 48% 29.84 in 10.0 mi NNW 16.1 mph 23.0 mph N/A   Clear
3:35 PM 32.0 °F 21.6 °F 14.0 °F 48% 29.85 in 10.0 mi NNW 15.0 mph - N/A   Clear
3:55 PM 32.0 °F 22.5 °F 14.0 °F 48% 29.86 in 10.0 mi North 12.7 mph 20.7 mph N/A   Clear
4:15 PM 32.0 °F 23.0 °F 14.0 °F 48% 29.88 in 10.0 mi NNW 11.5 mph 20.7 mph N/A   Clear
4:35 PM 32.0 °F 23.0 °F 14.0 °F 48% 29.89 in 10.0 mi North 11.5 mph - N/A   Clear
4:55 PM 32.0 °F 23.6 °F 14.0 °F 48% 29.90 in - North 10.4 mph 17.3 mph N/A   Clear
5:15 PM 30.2 °F 20.8 °F 14.0 °F 51% 29.91 in 10.0 mi NNE 11.5 mph - N/A   Clear
5:35 PM 28.4 °F 19.7 °F 14.0 °F 55% 29.93 in 10.0 mi NNE 9.2 mph - N/A   Clear
5:55 PM 26.6 °F 18.2 °F 12.2 °F 55% 29.93 in 10.0 mi North 8.1 mph - N/A   Clear
6:15 PM 24.8 °F 17.9 °F 12.2 °F 59% 29.95 in 10.0 mi North 5.8 mph - N/A   Clear
6:35 PM 24.8 °F 16.9 °F 12.2 °F 59% 29.97 in 10.0 mi North 6.9 mph - N/A   Clear
6:55 PM 24.8 °F 16.9 °F 12.2 °F 59% 29.98 in 10.0 mi North 6.9 mph - N/A   Clear
7:15 PM 21.2 °F 11.7 °F 10.4 °F 63% 29.99 in 10.0 mi North 8.1 mph - N/A   Clear
7:35 PM 23.0 °F 12.4 °F 12.2 °F 63% 30.00 in 10.0 mi North 10.4 mph - N/A   Clear
7:55 PM 23.0 °F 13.1 °F 10.4 °F 59% 30.01 in 10.0 mi North 9.2 mph 16.1 mph N/A   Mostly Cloudy
8:15 PM 23.0 °F 13.1 °F 10.4 °F 59% 30.01 in 10.0 mi North 9.2 mph - N/A   Mostly Cloudy
8:35 PM 21.2 °F 10.9 °F 8.6 °F 58% 30.03 in 10.0 mi North 9.2 mph - N/A   Mostly Cloudy
8:55 PM 21.2 °F 10.1 °F 8.6 °F 58% 30.02 in 10.0 mi NNE 10.4 mph - N/A   Mostly Cloudy
9:15 PM 21.2 °F 11.7 °F 8.6 °F 58% 30.04 in 10.0 mi North 8.1 mph - N/A   Overcast
9:35 PM 21.2 °F 12.6 °F 8.6 °F 58% 30.06 in 10.0 mi North 6.9 mph - N/A   Overcast
9:55 PM 21.2 °F 10.9 °F 8.6 °F 58% 30.06 in 10.0 mi North 9.2 mph - N/A   Overcast
10:15 PM 21.2 °F 10.1 °F 8.6 °F 58% 30.06 in 10.0 mi NNE 10.4 mph - N/A   Overcast
10:35 PM 19.4 °F 8.6 °F 6.8 °F 58% 30.07 in 10.0 mi NNE 9.2 mph 15.0 mph N/A   Overcast
10:55 PM 19.4 °F 7.9 °F 6.8 °F 58% 30.08 in 10.0 mi North 10.4 mph - N/A   Overcast
11:15 PM 19.4 °F 9.5 °F 6.8 °F 58% 30.09 in 10.0 mi North 8.1 mph - N/A   Overcast
11:35 PM 19.4 °F 8.6 °F 6.8 °F 58% 30.10 in 10.0 mi North 9.2 mph - N/A   Overcast
11:55 PM 19.4 °F 6.6 °F 6.8 °F 58% 30.10 in 10.0 mi North 12.7 mph - N/A   Overcast